星链-3784 (STARLINK-3784 )

导读

STARLINK-3784是美国太空探索技术公司(SpaceX)星链(Starlink)星座中的卫星,于北京时间2022年4月21日发射入轨。星链项目旨在构建全球卫星互联网,该卫星作为星链组网卫星之一,承担着为全球范围内用户提供低延迟、高速率宽带互联网接入服务的任务,助力星链星座全球覆盖能力的完善,是美国低轨巨型星座建设的组成部分。

Basic Information
目录编号:
52275
目录名称:
STARLINK-3784
国际标识:
2022-041Q
轨道中心:
EARTH
卫星名称:
星链-3784
卫星全名:
星链-3784 (STARLINK-3784 )
卫星状态:
在轨 (已飞行1597 天)
发射日期:
2022-04-21 UTC
国别 :
美国 (US)
星等 :
--
Orbit Information
数据来源 国际轨道数据
星历时间: 2026-09-04T00:33:51+0800
15小时前
查看轨道信息
半长轴: 6840.909km
偏心率: 0.0001365
轨道倾角: 53.164°
近地点辐角 80.854°
升交点赤经 26.199°
平近点角 279.262°
近地点: 461.838km
远地点: 463.706km
周期: 93.849分钟
每日圈数: 15.34377
Detailed Information
固有亮度:
5
最大亮度:
2.5
卫星平台:
Starlink v1.5
覆盖范围:
全球
运营商:
太空探索技术公司
运营商所在国:
美国
制造商(研发单位):
太空探索技术公司
制造商所在国:
美国
使用方式:
暂无
Satellite Introduction
星链(Starlink)计划是由太空探索技术公司(SpaceX)提出的一个巨型低轨卫星互联网星座项目,计划在2019年至2024年间在太空搭建由约1.2万颗卫星组成的“星链”网络,其中1584颗将部署在地球上空550千米处的近地轨道,并从2020年开始工作。该卫星仍在工作。
2D Orbit Map
3D Orbit Map
Orbit Altitude Analysis Chart
Orbit Inclination Analysis Chart
Orbit Comprehensive Analysis Chart
View Comprehensive Chart
Conjunction Data List
Event ID Objects TCA Miss Dist (km) Collision Risk Probability Collision Risk Index (CRI) Action
CDM_260906-151605-227506-427921
2026-09-06T
15:16:25+0000
0.394 km
远距离
1.264209E-4 高风险 0.77
CDM_260905-102905-227505-768221
2026-09-05T
10:29:12+0000
0.650 km
远距离
6.653333E-5 中风险 0.71
CDM_260906-041705-227506-584721
2026-09-06T
04:17:49+0000
0.641 km
远距离
5.247779E-5 中风险 0.69
CDM_260905-173105-227505-768221
2026-09-05T
17:31:15+0000
1.027 km
极远距离
1.510745E-5 中风险 0.59
CDM_260906-111905-227506-584721
2026-09-06T
11:19:54+0000
1.140 km
极远距离
7.806709E-6 低风险 0.53
CDM_260905-023705-227506-430421
2026-09-05T
02:37:01+0000
1.625 km
极远距离
3.722592E-6 低风险 0.46
CDM_260905-044005-227506-489121
OBJECT R (64891)
2026-09-05T
04:40:25+0000
2.004 km
极远距离
2.823504E-6 低风险 0.44
CDM_260906-125305-227506-584721
2026-09-06T
12:53:41+0000
1.984 km
极远距离
1.450834E-6 低风险 0.38
CDM_260906-055105-227506-584721
2026-09-06T
05:51:37+0000
2.142 km
极远距离
1.221044E-6 低风险 0.37
CDM_260827-205405-227505-237221
2026-08-27T
20:54:41+0000
2.543 km
极远距离
1.119496E-6 低风险 0.36